TimeEDT,TemperatureF,Dew PointF,Humidity,Sea Level PressureIn,VisibilityMPH,Wind Direction,Wind SpeedMPH,Gust SpeedMPH,PrecipitationIn,Events,Conditions,WindDirDegrees,DateUTC
12:03 AM,66.2,66.2,100,30.02,10.0,Calm,Calm,-,N/A,,Overcast,0,2013-07-29 04:03:00
12:39 AM,66.2,66.2,100,30.03,10.0,SE,6.9,-,0.00,,Overcast,130,2013-07-29 04:39:00
12:54 AM,66.9,66.0,97,30.03,9.0,SE,6.9,-,0.01,Rain,Light Rain,130,2013-07-29 04:54:00
1:54 AM,66.0,64.9,96,30.02,9.0,SSE,3.5,-,0.00,,Overcast,160,2013-07-29 05:54:00
2:04 AM,66.2,64.4,94,30.02,7.0,SE,3.5,-,0.01,,Overcast,130,2013-07-29 06:04:00
2:29 AM,64.4,64.4,100,30.02,9.0,Calm,Calm,-,0.04,Rain,Heavy Rain,0,2013-07-29 06:29:00
2:54 AM,66.0,64.9,96,30.01,10.0,Calm,Calm,-,0.14,Rain,Light Rain,0,2013-07-29 06:54:00
3:11 AM,66.2,64.4,94,30.01,10.0,ESE,3.5,-,N/A,,Overcast,120,2013-07-29 07:11:00
3:40 AM,64.4,64.4,100,30.01,10.0,Calm,Calm,-,N/A,,Overcast,0,2013-07-29 07:40:00
3:51 AM,64.4,64.4,100,30.02,10.0,ESE,3.5,-,N/A,,Overcast,120,2013-07-29 07:51:00
3:54 AM,64.9,64.0,97,30.01,10.0,Calm,Calm,-,N/A,,Overcast,0,2013-07-29 07:54:00
4:54 AM,64.9,64.0,97,30.01,8.0,ESE,3.5,-,N/A,,Overcast,110,2013-07-29 08:54:00
5:54 AM,64.9,64.0,97,30.02,9.0,ESE,3.5,-,N/A,,Overcast,120,2013-07-29 09:54:00
6:54 AM,64.9,64.0,97,30.02,10.0,Calm,Calm,-,N/A,,Overcast,0,2013-07-29 10:54:00
7:54 AM,66.0,64.0,93,30.02,10.0,Calm,Calm,-,N/A,,Overcast,0,2013-07-29 11:54:00
8:25 AM,66.2,64.4,94,30.03,10.0,South,3.5,-,N/A,,Overcast,170,2013-07-29 12:25:00
8:54 AM,68.0,64.9,90,30.04,10.0,South,3.5,-,N/A,,Overcast,190,2013-07-29 12:54:00
9:54 AM,70.0,66.0,87,30.03,10.0,Calm,Calm,-,N/A,,Overcast,0,2013-07-29 13:54:00
10:23 AM,69.8,66.2,88,30.04,10.0,Calm,Calm,-,N/A,,Overcast,0,2013-07-29 14:23:00
10:54 AM,71.1,66.0,84,30.04,10.0,Calm,Calm,-,N/A,,Overcast,0,2013-07-29 14:54:00
11:54 AM,73.0,66.0,79,30.03,10.0,Variable,3.5,-,N/A,,Overcast,0,2013-07-29 15:54:00
12:22 PM,75.2,66.2,73,30.03,10.0,ESE,3.5,-,N/A,,Overcast,120,2013-07-29 16:22:00
12:49 PM,77.0,66.2,69,30.02,10.0,East,8.1,-,N/A,,Overcast,100,2013-07-29 16:49:00
12:54 PM,77.0,66.9,71,30.02,10.0,ESE,8.1,-,N/A,,Overcast,110,2013-07-29 16:54:00
1:54 PM,80.1,66.0,62,30.01,10.0,SE,6.9,-,N/A,,Mostly Cloudy,130,2013-07-29 17:54:00
2:54 PM,81.0,64.9,58,29.99,10.0,Variable,5.8,-,N/A,,Clear,0,2013-07-29 18:54:00
3:54 PM,81.0,63.0,54,29.98,10.0,South,8.1,-,N/A,,Clear,170,2013-07-29 19:54:00
4:33 PM,78.8,64.4,61,29.97,10.0,SSW,4.6,-,N/A,Thunderstorm,Scattered Clouds,210,2013-07-29 20:33:00
4:54 PM,71.1,62.1,73,29.98,10.0,Variable,6.9,-,0.01,Rain-Thunderstorm,Light Thunderstorms and Rain,0,2013-07-29 20:54:00
5:54 PM,68.0,64.0,87,30.00,10.0,SSW,4.6,-,0.00,Rain-Thunderstorm,Light Rain,210,2013-07-29 21:54:00
6:21 PM,68.0,64.4,88,30.01,10.0,ESE,10.4,16.1,0.00,Rain,Light Rain,120,2013-07-29 22:21:00
6:37 PM,66.2,64.4,94,30.03,10.0,SE,5.8,-,0.00,Thunderstorm,Mostly Cloudy,140,2013-07-29 22:37:00
6:52 PM,66.2,64.4,94,30.03,10.0,SSE,6.9,-,0.00,Rain,Light Rain,160,2013-07-29 22:52:00
6:54 PM,66.9,64.9,93,30.03,10.0,SSE,8.1,-,0.00,Rain,Light Rain,160,2013-07-29 22:54:00
7:54 PM,66.0,63.0,90,30.04,10.0,Calm,Calm,-,0.02,Rain,Light Rain,0,2013-07-29 23:54:00
8:39 PM,64.4,64.4,100,30.05,10.0,SE,5.8,-,0.00,,Mostly Cloudy,130,2013-07-30 00:39:00
8:50 PM,64.4,64.4,100,30.05,10.0,ESE,3.5,-,0.00,,Mostly Cloudy,110,2013-07-30 00:50:00
8:54 PM,64.9,63.0,93,30.06,10.0,SE,4.6,-,0.00,,Mostly Cloudy,130,2013-07-30 00:54:00
9:12 PM,64.4,62.6,94,30.06,10.0,Calm,Calm,-,N/A,,Overcast,0,2013-07-30 01:12:00
9:54 PM,64.0,62.1,93,30.06,10.0,Calm,Calm,-,N/A,,Overcast,0,2013-07-30 01:54:00
10:23 PM,62.6,60.8,94,30.06,10.0,Calm,Calm,-,N/A,,Scattered Clouds,0,2013-07-30 02:23:00
10:39 PM,62.6,60.8,94,30.06,9.0,Calm,Calm,-,0.01,,Partly Cloudy,0,2013-07-30 02:39:00
10:54 PM,61.0,60.1,97,30.07,6.0,Calm,Calm,-,0.01,,Scattered Clouds,0,2013-07-30 02:54:00
11:01 PM,62.6,60.8,94,30.07,4.0,Calm,Calm,-,N/A,,Mostly Cloudy,0,2013-07-30 03:01:00
11:08 PM,62.6,60.8,94,30.06,5.0,WNW,3.5,-,N/A,,Mostly Cloudy,290,2013-07-30 03:08:00
11:54 PM,62.1,62.1,100,30.06,10.0,Calm,Calm,-,N/A,,Overcast,0,2013-07-30 03:54:00